{"data":{"norad_id":58189,"intl_designator":"2023-167Q","name":"STARLINK-30796","alt_names":[],"object_type":"PAYLOAD","status":"ACTIVE","operator":null,"country":"US","launch_date":"2023-10-30","launch_site_code":"AFETR","launch_vehicle":null,"mission":null,"orbit_class":"UNKNOWN","rcs_meters":null,"size_class":null,"mass_kg":null,"dimensions":null,"purposes":["comms"],"wikipedia_slug":null,"has_3d_model":false,"image_url":null,"decayed_at":null,"tle_current":{"epoch":"2026-09-19T23:39:11.124288Z","epoch_age_seconds":184925,"freshness":"STALE","line1":"1 58189U 23167Q   26262.98554542  .00000023  00000+0  10357-4 0  9994","line2":"2 58189  43.0016 125.8193 0001277 272.7433  87.3273 15.27578467160707","mean_motion":15.27578467,"eccentricity":0.0001277,"inclination_deg":43.0016,"raan_deg":125.8193,"arg_perigee_deg":272.7433,"mean_anomaly_deg":87.3273,"bstar":1.0357e-5,"rev_number":16070,"period_min":94.266843314963,"perigee_km":482.17751234633,"apogee_km":483.92986044764,"semimajor_km":6861.190686397,"source":"CELESTRAK","updated_at":"2026-09-21T09:00:33.828748Z"}}}